GORIZONT 9 (14940 NORAD) Tracking and Keplerian Element Data

This shows tracking and keplerian element data for the satellite.

Feedback or suggestion? Click here.




ElementValue
Catalog14940
NameGORIZONT 9
Epoch Orbit11693
Epoch Day33.84628088
Epoch Year2025
RAAN315.6349
Inclination9.694
Eccentricity0.0005325
Argument of Perigee270.5256
Mean Anonmoly278.4489
Mean Motion1.00225708
Decay Rate-1E-08
L11 14940U 84041A 25033.84628088 -.00000001 00000+0 00000+0 0 9992
L22 14940 9.6940 315.6349 0005325 270.5256 278.4489 1.00225708116938



Live tracking and technical data element details for GORIZONT 9 (NORAD 14940). GORIZONT 9 can be tracked NOW for your location showing map with azimuth and elevation plus other details from your city location.







IsCatalogInMostPopularTable: catalog: 14940, numindb: 310
Update: records affected: 1



GetName: 14940 GORIZONT 9

Hit Count: updated at: Sat, 17 May 2025 09:58:48 GMT